Mount Vernon, IL

11:03 PM CDT on June 24, 2017 (GMT -0500)
Mount Vernon

Weather History for KMVN - October, 2013

Change the Weather History Date:

Sunday, October 27, 2013

  Actual Average Record
Temperature  
Mean Temperature 43 °F -  
Max Temperature 60 °F 62 °F 78 °F (2014)
Min Temperature 26 °F 42 °F 26 °F (2013)
Degree Days  
Heating Degree Days 22    
Moisture  
Dew Point 28 °F    
Average Humidity 67    
Maximum Humidity 93    
Minimum Humidity 31    
Precipitation  
Precipitation 0.00 in - - ()
Sea Level Pressure  
Sea Level Pressure 30.10 in    
Wind  
Wind Speed 1 mph (SSW)    
Max Wind Speed 8 mph    
Max Gust Speed -    
Visibility 10 miles    
Events      
Averages and records for this station are not official NWS values.
T = Trace of Precipitation, MM = Missing Value Source: NWS Daily Summary

Daily Weather History Graph

Daily Weather History Graph

Search for Another Location

Airport or City:

Trip Planner

Search our weather history database for the weather conditions in past years. The results will help you decide how hot, cold, wet, or windy it might be!

Date:

Astronomy

Oct. 27, 2013 Rise Set
Actual Time 7:16 AM CDT 6:01 PM CDT
Civil Twilight 6:49 AM CDT 6:28 PM CDT
Nautical Twilight 6:18 AM CDT 6:59 PM CDT
Astronomical Twilight 5:47 AM CDT 7:30 PM CDT
Moon 12:19 AM CDT (10/27) 2:05 PM CDT (10/27)
Length of Visible Light 11h 38m
Length of Day
10h 44m
Last Quarter, 43% of the Moon is Illuminated
Oct 27
Last Quarter
Nov 3
New
Nov 9
First Quarter
Nov 17
Full
Nov 25
Last Quarter

Hourly Weather History & Observations

Time (CDT) Temp. Dew Point Humidity Pressure Visibility Wind Dir Wind Speed Gust Speed Precip Events Conditions
12:15 AM 32.0 °F 26.6 °F 80% 30.13 in 10.0 mi Calm Calm - N/A   Clear
12:35 AM 33.8 °F 28.4 °F 81% 30.13 in 10.0 mi Calm Calm - N/A   Clear
12:55 AM 30.2 °F 26.6 °F 86% 30.12 in 10.0 mi Calm Calm - N/A   Clear
1:15 AM 30.2 °F 26.6 °F 86% 30.12 in 10.0 mi Calm Calm - N/A   Clear
1:35 AM 30.2 °F 26.6 °F 86% 30.12 in 10.0 mi Calm Calm - N/A   Clear
1:55 AM 28.4 °F 24.8 °F 86% 30.12 in 10.0 mi Calm Calm - N/A   Clear
2:15 AM 30.2 °F 26.6 °F 86% 30.11 in 10.0 mi Calm Calm - N/A   Clear
2:35 AM 28.4 °F 26.6 °F 93% 30.11 in 10.0 mi Calm Calm - N/A   Clear
2:55 AM 28.4 °F 24.8 °F 86% 30.11 in 10.0 mi Calm Calm - N/A   Clear
3:15 AM 30.2 °F 26.6 °F 86% 30.11 in 10.0 mi Calm Calm - N/A   Clear
3:35 AM 28.4 °F 24.8 °F 86% 30.11 in 10.0 mi Calm Calm - N/A   Clear
3:55 AM 28.4 °F 24.8 °F 86% 30.11 in 10.0 mi Calm Calm - N/A   Clear
4:15 AM 26.6 °F 24.8 °F 93% 30.10 in 10.0 mi Calm Calm - N/A   Clear
4:35 AM 28.4 °F 24.8 °F 86% 30.10 in 10.0 mi Calm Calm - N/A   Clear
4:55 AM 28.4 °F 24.8 °F 86% 30.11 in 10.0 mi Calm Calm - N/A   Clear
5:15 AM 26.6 °F 23.0 °F 86% 30.11 in 10.0 mi Calm Calm - N/A   Clear
5:35 AM 28.4 °F 24.8 °F 86% 30.11 in 10.0 mi Calm Calm - N/A   Clear
5:55 AM 28.4 °F 24.8 °F 86% 30.11 in 10.0 mi Calm Calm - N/A   Clear
6:15 AM 26.6 °F 23.0 °F 86% 30.11 in 10.0 mi Calm Calm - N/A   Clear
6:35 AM 26.6 °F 23.0 °F 86% 30.11 in 10.0 mi Calm Calm - N/A   Clear
6:55 AM 26.6 °F 23.0 °F 86% 30.11 in 10.0 mi Calm Calm - N/A   Clear
7:15 AM 26.6 °F 24.8 °F 93% 30.12 in 10.0 mi Calm Calm - N/A   Clear
7:35 AM 28.4 °F 24.8 °F 86% 30.12 in 10.0 mi Calm Calm - N/A   Clear
7:55 AM 28.4 °F 24.8 °F 86% 30.12 in 10.0 mi Calm Calm - N/A   Clear
8:15 AM 30.2 °F 26.6 °F 86% 30.13 in 10.0 mi Calm Calm - N/A   Clear
8:35 AM 33.8 °F 28.4 °F 81% 30.13 in 10.0 mi Calm Calm - N/A   Clear
8:55 AM 35.6 °F 30.2 °F 81% 30.14 in 10.0 mi Calm Calm - N/A   Clear
9:15 AM 39.2 °F 33.8 °F 81% 30.14 in 10.0 mi Calm Calm - N/A   Clear
9:35 AM 42.8 °F 35.6 °F 76% 30.14 in 10.0 mi Calm Calm - N/A   Clear
9:55 AM 46.4 °F 35.6 °F 66% 30.14 in 10.0 mi Calm Calm - N/A   Clear
10:15 AM 48.2 °F 33.8 °F 58% 30.15 in 10.0 mi Calm Calm - N/A   Clear
10:35 AM 51.8 °F 33.8 °F 50% 30.15 in 10.0 mi Calm Calm - N/A   Clear
10:55 AM 53.6 °F 33.8 °F 47% 30.15 in 10.0 mi South 4.6 mph - N/A   Clear
11:15 AM 53.6 °F 32.0 °F 44% 30.15 in 10.0 mi South 3.5 mph - N/A   Clear
11:35 AM 53.6 °F 32.0 °F 44% 30.15 in 10.0 mi SW 8.1 mph - N/A   Clear
11:55 AM 53.6 °F 30.2 °F 41% 30.15 in 10.0 mi WSW 5.8 mph - N/A   Clear
12:15 PM 55.4 °F 30.2 °F 38% 30.13 in 10.0 mi WNW 3.5 mph - N/A   Clear
12:35 PM 55.4 °F 30.2 °F 38% 30.12 in 10.0 mi WSW 8.1 mph - N/A   Clear
12:55 PM 57.2 °F 30.2 °F 36% 30.11 in 10.0 mi SW 8.1 mph - N/A   Clear
1:15 PM 55.4 °F 30.2 °F 38% 30.10 in 10.0 mi West 6.9 mph - N/A   Clear
1:35 PM 55.4 °F 30.2 °F 38% 30.10 in 10.0 mi SSE 3.5 mph - N/A   Clear
1:55 PM 57.2 °F 30.2 °F 36% 30.08 in 10.0 mi ESE 3.5 mph - N/A   Clear
2:15 PM 59.0 °F 30.2 °F 34% 30.08 in 10.0 mi SSE 4.6 mph - N/A   Clear
2:35 PM 60.8 °F 30.2 °F 31% 30.08 in 10.0 mi WSW 8.1 mph - N/A   Clear
2:55 PM 59.0 °F 30.2 °F 34% 30.07 in 10.0 mi SSW 5.8 mph - N/A   Clear
3:15 PM 60.8 °F 30.2 °F 31% 30.06 in 9.0 mi WSW 4.6 mph - N/A   Clear
3:35 PM 60.8 °F 30.2 °F 31% 30.06 in 10.0 mi South 3.5 mph - N/A   Clear
3:55 PM 60.8 °F 30.2 °F 31% 30.06 in 10.0 mi Calm Calm - N/A   Clear
4:15 PM 60.8 °F 30.2 °F 31% 30.06 in 10.0 mi South 4.6 mph - N/A   Clear
4:35 PM 60.8 °F 30.2 °F 31% 30.05 in 10.0 mi South 5.8 mph - N/A   Clear
4:55 PM 59.0 °F 30.2 °F 34% 30.05 in 10.0 mi SSW 4.6 mph - N/A   Clear
5:15 PM 57.2 °F 30.2 °F 36% 30.06 in 10.0 mi SW 5.8 mph - N/A   Clear
5:35 PM 55.4 °F 30.2 °F 38% 30.06 in 10.0 mi South 5.8 mph - N/A   Clear
5:55 PM 51.8 °F 30.2 °F 44% 30.06 in 10.0 mi Calm Calm - N/A   Clear
6:15 PM 48.2 °F 28.4 °F 46% 30.06 in 9.0 mi Calm Calm - N/A   Clear
6:35 PM 46.4 °F 30.2 °F 53% 30.06 in 2.5 mi Calm Calm - N/A   Clear
6:55 PM 39.2 °F 30.2 °F 70% 30.06 in 5.0 mi Calm Calm - N/A   Clear
7:15 PM 39.2 °F 30.2 °F 70% 30.06 in 10.0 mi Calm Calm - N/A   Clear
7:35 PM 37.4 °F 30.2 °F 75% 30.06 in 10.0 mi Calm Calm - N/A   Clear
7:55 PM 37.4 °F 28.4 °F 70% 30.06 in 5.0 mi Calm Calm - N/A   Clear
8:15 PM 35.6 °F 28.4 °F 75% 30.06 in 10.0 mi Calm Calm - N/A   Clear
8:35 PM 35.6 °F 30.2 °F 81% 30.06 in 9.0 mi Calm Calm - N/A   Clear
8:55 PM 33.8 °F 30.2 °F 87% 30.06 in 10.0 mi Calm Calm - N/A   Clear
9:15 PM 33.8 °F 28.4 °F 81% 30.06 in 10.0 mi Calm Calm - N/A   Clear
9:35 PM 32.0 °F 28.4 °F 87% 30.06 in 10.0 mi Calm Calm - N/A   Clear
9:55 PM 32.0 °F 26.6 °F 80% 30.07 in 10.0 mi Calm Calm - N/A   Clear
10:15 PM 30.2 °F 26.6 °F 86% 30.07 in 10.0 mi Calm Calm - N/A   Clear
10:35 PM 32.0 °F 28.4 °F 87% 30.07 in 10.0 mi Calm Calm - N/A   Clear
10:55 PM 30.2 °F 24.8 °F 80% 30.07 in 10.0 mi Calm Calm - N/A   Clear
11:15 PM 30.2 °F 28.4 °F 93% 30.08 in 10.0 mi Calm Calm - N/A   Clear
11:35 PM 28.4 °F 24.8 °F 86% 30.08 in 10.0 mi Calm Calm - N/A   Clear
11:55 PM 30.2 °F 24.8 °F 80% 30.08 in 10.0 mi Calm Calm - N/A   Clear